GW4345 Weather Reports


time (UTC)temp
F
wind
direction
speed
knots
gust
knots
rain 1hr
in
rain 24hr
in
rain mn
in
humidity
%
barometer
mb
20260510140505 54 70 7.8 17.4 0.00 0.00 0.00 64 1017.1
20260510140005 54 92 5.2 13.0 0.00 0.00 0.00 65 1017.2
20260510135504 54 54 6.1 14.8 0.00 0.00 0.00 64 1017.2
20260510134506 54 56 4.3 11.3 0.00 0.00 0.00 65 1017.2
20260510134013 54 70 3.5 10.4 0.00 0.00 0.00 65 1017.2
20260510133506 54 76 7.0 15.6 0.00 0.00 0.00 65 1017.3
20260510133013 54 61 5.2 17.4 0.00 0.00 0.00 66 1017.3
20260510132506 54 79 5.2 17.4 0.00 0.00 0.00 66 1017.4
20260510132013 54 46 1.7 6.1 0.00 0.00 0.00 67 1017.4
20260510131013 55 64 2.6 10.4 0.00 0.00 0.00 66 1017.4
20260510130506 55 83 5.2 13.0 0.00 0.00 0.00 66 1017.4
20260510130006 55 44 6.1 12.2 0.00 0.00 0.00 65 1017.4
20260510125506 55 49 2.6 10.4 0.00 0.00 0.00 67 1017.5
20260510125013 54 92 6.1 12.2 0.00 0.00 0.00 67 1017.5
20260510124506 54 56 5.2 13.0 0.00 0.00 0.00 67 1017.6
20260510123506 54 98 7.8 17.4 0.00 0.00 0.00 67 1017.8
20260510123013 54 98 7.8 13.9 0.00 0.00 0.00 67 1017.9
20260510122506 54 78 4.3 11.3 0.00 0.00 0.00 68 1017.8
20260510121506 54 93 8.7 20.9 0.00 0.00 0.00 67 1017.8
20260510121013 54 84 7.8 17.4 0.00 0.00 0.00 67 1017.8
20260510120506 54 93 6.1 17.4 0.00 0.00 0.00 68 1017.8
20260510120005 54 101 7.8 13.9 0.00 0.00 0.00 68 1017.8
20260510115505 54 100 7.8 17.4 0.00 0.00 0.00 68 1017.9
20260510115013 54 89 7.8 17.4 0.00 0.00 0.00 68 1017.9
20260510114013 54 80 5.2 10.4 0.00 0.00 0.00 68 1018.2
20260510113506 54 99 6.1 13.9 0.00 0.00 0.00 68 1018.2
20260510113013 54 75 5.2 11.3 0.00 0.00 0.00 68 1018.4
20260510111505 54 87 5.2 13.0 0.00 0.00 0.00 68 1018.6
20260510111013 54 99 7.8 17.4 0.00 0.00 0.00 67 1018.7
20260510105505 54 90 5.2 12.2 0.00 0.00 0.00 67 1018.7
20260510105016 54 99 7.8 17.4 0.00 0.00 0.00 67 1018.7
20260510104505 54 91 10.4 20.9 0.00 0.00 0.00 66 1018.7
20260510104013 54 107 10.4 17.4 0.00 0.00 0.00 66 1018.6
20260510103506 55 77 4.3 14.8 0.00 0.00 0.00 67 1018.7
20260510103013 55 55 4.3 15.6 0.00 0.00 0.00 66 1018.6
20260510102505 55 53 5.2 15.6 0.00 0.00 0.00 65 1018.6
20260510102027 55 65 5.2 13.0 0.00 0.00 0.00 67 1018.5
20260510101506 55 101 8.7 17.4 0.00 0.00 0.00 67 1018.5
20260510101013 55 67 5.2 13.0 0.00 0.00 0.00 68 1018.7
20260510100005 54 70 4.3 10.4 0.00 0.00 0.00 69 1018.6
20260510095506 54 51 6.1 17.4 0.00 0.00 0.00 68 1018.6
20260510095012 54 74 5.2 10.4 0.00 0.00 0.00 70 1018.6
20260510094013 54 66 6.1 14.8 0.00 0.00 0.00 70 1018.7
20260510093506 54 60 5.2 14.8 0.00 0.00 0.00 71 1018.6
20260510093013 54 53 4.3 15.6 0.00 0.00 0.00 70 1018.7
20260510092505 54 70 5.2 10.4 0.00 0.00 0.00 71 1018.7
20260510091505 53 61 7.8 19.1 0.00 0.00 0.00 71 1018.8
20260510091013 53 89 9.6 22.6 0.00 0.00 0.00 71 1018.8
20260510090005 53 55 7.0 13.9 0.00 0.00 0.00 72 1019.0
20260510085505 53 94 11.3 18.2 0.00 0.00 0.00 72 1019.0
20260510085012 53 85 10.4 18.2 0.00 0.00 0.00 72 1019.0
20260510084506 53 77 10.4 17.4 0.00 0.00 0.00 72 1019.1
20260510084012 53 65 4.3 12.2 0.00 0.00 0.00 74 1019.1
20260510083505 52 78 10.4 17.4 0.00 0.00 0.00 74 1019.1
20260510083012 52 78 4.3 10.4 0.00 0.00 0.00 74 1019.2
20260510082520 52 63 4.3 12.2 0.00 0.00 0.00 75 1019.2
20260510082012 52 84 6.1 13.0 0.00 0.00 0.00 75 1019.1
20260510081012 52 82 5.2 11.3 0.00 0.00 0.00 76 1019.1
20260510080506 52 90 6.1 17.4 0.00 0.00 0.00 76 1019.1
20260510080005 51 80 6.1 13.0 0.00 0.00 0.00 76 1019.1
20260510075505 51 80 5.2 13.9 0.00 0.00 0.00 77 1019.1
20260510075013 51 77 4.3 10.4 0.00 0.00 0.00 78 1019.1
20260510074508 51 92 3.5 10.4 0.00 0.00 0.00 79 1019.1
20260510074012 51 59 5.2 11.3 0.00 0.00 0.00 79 1019.2
20260510073505 51 75 4.3 13.9 0.00 0.00 0.00 80 1019.2
20260510073012 51 41 6.1 11.3 0.00 0.00 0.00 80 1019.2
20260510072505 50 69 4.3 10.4 0.00 0.00 0.00 81 1019.2
20260510071505 50 76 7.8 13.0 0.00 0.00 0.00 81 1019.2
20260510071012 50 81 5.2 10.4 0.00 0.00 0.00 82 1019.2
20260510070506 50 58 4.3 11.3 0.00 0.00 0.00 82 1019.1
20260510070006 50 76 4.3 13.0 0.00 0.00 0.00 82 1019.1
20260510065508 50 70 6.1 14.8 0.00 0.00 0.00 82 1019.1
20260510065012 50 88 4.3 13.0 0.00 0.00 0.00 82 1019.1
20260510064505 50 87 5.2 15.6 0.00 0.00 0.00 83 1019.1
20260510063505 49 65 4.3 13.9 0.00 0.00 0.00 82 1019.0
20260510063013 49 93 5.2 11.3 0.00 0.00 0.00 82 1019.0
20260510062505 49 70 4.3 11.3 0.00 0.00 0.00 82 1018.8
20260510062012 49 71 6.1 17.4 0.00 0.00 0.00 83 1018.8
20260510060506 49 78 5.2 11.3 0.00 0.00 0.00 83 1018.8
20260510055505 49 54 4.3 10.4 0.00 0.00 0.00 85 1018.8
20260510055013 49 55 5.2 11.3 0.00 0.00 0.00 84 1018.7
20260510054505 49 61 7.8 12.2 0.00 0.00 0.00 85 1018.6
20260510054012 49 69 2.6 13.9 0.00 0.00 0.00 85 1018.7
20260510053506 49 56 4.3 13.9 0.00 0.00 0.00 85 1018.7
20260510053012 49 50 5.2 13.0 0.00 0.00 0.00 85 1018.6
20260510052505 49 59 4.3 12.2 0.00 0.00 0.00 85 1018.6
20260510052012 49 63 4.3 11.3 0.00 0.00 0.00 85 1018.4
20260510051505 49 56 4.3 8.7 0.00 0.00 0.00 85 1018.5
20260510051012 49 53 4.3 8.7 0.00 0.00 0.00 85 1018.4
20260510050505 49 77 3.5 11.3 0.00 0.00 0.00 85 1018.4
20260510050005 48 70 5.2 13.9 0.00 0.00 0.00 85 1018.5
20260510045505 48 54 4.3 10.4 0.00 0.00 0.00 85 1018.5
20260510045012 48 54 2.6 12.2 0.00 0.00 0.00 85 1018.5
20260510044505 48 71 2.6 10.4 0.00 0.00 0.00 85 1018.4
20260510044012 48 72 4.3 12.2 0.00 0.00 0.00 85 1018.4
20260510043505 48 71 4.3 12.2 0.00 0.00 0.00 85 1018.4
20260510043012 48 69 2.6 10.4 0.00 0.00 0.00 85 1018.4
20260510042012 48 63 4.3 8.7 0.00 0.00 0.00 85 1018.5
20260510041505 48 64 5.2 11.3 0.00 0.00 0.00 85 1018.5
20260510041012 48 54 3.5 11.3 0.00 0.00 0.00 85 1018.5
20260510040005 48 58 4.3 10.4 0.00 0.00 0.00 85 1018.6
20260510035505 48 61 5.2 10.4 0.00 0.00 0.00 85 1018.5
20260510035012 48 53 2.6 10.4 0.00 0.00 0.00 85 1018.6
20260510034505 48 70 5.2 11.3 0.00 0.00 0.00 85 1018.7
20260510034012 48 52 4.3 11.3 0.00 0.00 0.00 85 1018.8
20260510033506 48 56 2.6 6.1 0.00 0.00 0.00 85 1018.8
20260510032505 48 48 3.5 10.4 0.00 0.00 0.00 85 1018.9
20260510032012 48 65 2.6 8.7 0.00 0.00 0.00 85 1018.9
20260510031505 49 82 4.3 10.4 0.00 0.00 0.00 85 1019.0
20260510031012 49 53 3.5 7.8 0.00 0.00 0.00 85 1019.0
20260510030505 49 46 5.2 10.4 0.00 0.00 0.00 85 1019.0
20260510025027 49 68 4.3 10.4 0.00 0.00 0.00 85 1019.1
20260510024505 49 46 3.5 13.0 0.00 0.00 0.00 85 1019.0
20260510024012 49 61 5.2 13.9 0.00 0.00 0.00 85 1019.1
20260510023505 49 66 4.3 11.3 0.00 0.00 0.00 85 1018.9
20260510023013 49 52 4.3 10.4 0.00 0.00 0.00 85 1018.9
20260510022505 49 66 4.3 10.4 0.00 0.00 0.00 85 1019.0
20260510022012 49 63 5.2 13.0 0.00 0.00 0.00 85 1018.9
20260510021505 49 53 4.3 11.3 0.00 0.00 0.00 85 1018.9
20260510021012 49 61 5.2 17.4 0.00 0.00 0.00 85 1019.0
20260510020005 49 52 4.3 10.4 0.00 0.00 0.00 84 1019.2
20260510015012 49 58 2.6 12.2 0.00 0.00 0.00 84 1019.4
20260510014505 49 78 2.6 7.0 0.00 0.00 0.00 83 1019.4
20260510014012 49 60 2.6 10.4 0.00 0.00 0.00 83 1019.6
20260510013505 49 63 1.7 8.7 0.00 0.00 0.00 82 1019.5
20260510013012 49 50 2.6 10.4 0.00 0.00 0.00 82 1019.3
20260510012505 49 56 2.6 7.8 0.00 0.00 0.00 81 1019.3
20260510012012 49 56 2.6 7.0 0.00 0.00 0.00 80 1019.1
20260510011505 50 40 2.6 7.0 0.00 0.00 0.00 79 1019.1
20260510011012 50 63 3.5 10.4 0.00 0.00 0.00 78 1019.0
20260510010506 50 38 2.6 7.0 0.00 0.00 0.00 77 1019.1
20260510010005 50 59 4.3 10.4 0.00 0.00 0.00 76 1019.1
20260510005505 50 57 2.6 10.4 0.00 0.00 0.00 75 1019.1
20260510005012 50 55 2.6 10.4 0.00 0.00 0.00 74 1019.1
20260510004505 51 48 4.3 10.4 0.00 0.00 0.00 73 1019.1
20260510003505 51 57 4.3 11.3 0.00 0.00 0.00 71 1019.1
20260510003012 51 70 4.3 10.4 0.00 0.00 0.00 70 1019.2
20260510002012 52 64 4.3 13.0 0.00 0.00 0.00 67 1019.3
20260510001504 52 66 3.5 10.4 0.00 0.00 0.00 67 1019.3
20260510001012 52 67 1.7 17.4 0.00 0.00 0.00 67 1019.2
20260510000505 53 63 2.6 8.7 0.00 0.00 0.00 67 1019.2
20260510000004 53 54 2.6 8.7 0.00 0.00 0.00 67 1019.1
20260509235504 53 79 4.3 13.0 0.00 0.00 0.00 67 1019.1
20260509235012 53 73 3.5 11.3 0.00 0.00 0.00 67 1019.2
20260509234504 53 90 5.2 12.2 0.00 0.00 0.00 67 1019.2
20260509234012 54 74 3.5 10.4 0.00 0.00 0.00 66 1019.2
20260509233505 54 84 6.1 13.0 0.00 0.00 0.00 66 1019.3
20260509233012 54 79 4.3 10.4 0.00 0.00 0.00 65 1019.3
20260509232012 54 87 4.3 13.0 0.00 0.00 0.00 63 1019.4
20260509231505 54 87 5.2 10.4 0.00 0.00 0.00 62 1019.4
20260509231012 55 96 7.0 12.2 0.00 0.00 0.00 62 1019.3
20260509230505 55 79 4.3 12.2 0.00 0.00 0.00 61 1019.4
20260509225504 55 76 4.3 10.4 0.00 0.00 0.00 59 1019.5
20260509225012 55 79 2.6 10.4 0.00 0.00 0.00 60 1019.5
20260509224505 55 87 6.1 11.3 0.00 0.00 0.00 60 1019.3
20260509224012 55 82 5.2 7.8 0.00 0.00 0.00 59 1019.3
20260509223505 55 92 5.2 12.2 0.00 0.00 0.00 58 1019.2
20260509223011 55 84 5.2 11.3 0.00 0.00 0.00 57 1019.2
20260509222504 55 87 5.2 10.4 0.00 0.00 0.00 57 1019.2
20260509222012 56 99 5.2 8.7 0.00 0.00 0.00 56 1019.3
20260509221504 56 92 6.1 10.4 0.00 0.00 0.00 56 1019.2
20260509220505 56 71 1.7 10.4 0.00 0.00 0.00 55 1019.3
20260509220004 56 111 1.7 5.2 0.00 0.00 0.00 55 1019.3
20260509215504 56 83 0.9 5.2 0.00 0.00 0.00 54 1019.2
20260509214504 57 84 2.6 6.1 0.00 0.00 0.00 53 1019.2
20260509214011 57 97 4.3 7.8 0.00 0.00 0.00 53 1019.2
20260509213012 57 93 2.6 8.7 0.00 0.00 0.00 53 1019.1
20260509212505 57 93 4.3 8.7 0.00 0.00 0.00 52 1019.0
20260509212011 58 85 4.3 7.8 0.00 0.00 0.00 52 1019.0
20260509211504 58 99 5.2 10.4 0.00 0.00 0.00 51 1018.8
20260509210505 58 94 4.3 10.4 0.00 0.00 0.00 50 1018.9
20260509210005 58 95 2.6 7.0 0.00 0.00 0.00 49 1018.9
20260509205504 58 107 4.3 8.7 0.00 0.00 0.00 49 1018.9
20260509205011 58 94 5.2 8.7 0.00 0.00 0.00 49 1018.9
20260509204012 58 91 4.3 7.8 0.00 0.00 0.00 48 1018.9
20260509203504 58 116 2.6 7.0 0.00 0.00 0.00 47 1018.9
20260509202504 59 101 3.5 10.4 0.00 0.00 0.00 46 1018.8
20260509202012 59 126 4.3 10.4 0.00 0.00 0.00 46 1018.7
20260509201504 59 108 5.2 10.4 0.00 0.00 0.00 45 1018.5
20260509201012 59 70 3.5 7.8 0.00 0.00 0.00 44 1018.4
20260509200505 59 124 5.2 7.8 0.00 0.00 0.00 43 1018.5
20260509200005 59 111 5.2 11.3 0.00 0.00 0.00 42 1018.4
20260509195504 59 126 6.1 10.4 0.00 0.00 0.00 42 1018.5
20260509195012 60 123 3.5 10.4 0.00 0.00 0.00 41 1018.5
20260509194504 60 120 5.2 10.4 0.00 0.00 0.00 41 1018.5
20260509194012 60 121 4.3 8.7 0.00 0.00 0.00 40 1018.4
20260509193504 60 120 4.3 7.8 0.00 0.00 0.00 40 1018.4
20260509192504 61 124 5.2 10.4 0.00 0.00 0.00 40 1018.3
20260509192011 61 122 5.2 8.7 0.00 0.00 0.00 40 1018.3
20260509191504 61 97 5.2 12.2 0.00 0.00 0.00 40 1018.2
20260509191011 61 104 5.2 11.3 0.00 0.00 0.00 39 1018.2
20260509185504 62 136 7.8 13.0 0.00 0.00 0.00 39 1018.3
20260509185011 62 121 5.2 8.7 0.00 0.00 0.00 41 1018.2
20260509184504 63 119 7.0 12.2 0.00 0.00 0.00 41 1018.2
20260509184012 63 140 6.1 10.4 0.00 0.00 0.00 41 1018.1
20260509183504 63 115 5.2 10.4 0.00 0.00 0.00 41 1018.1
20260509183012 63 112 7.8 13.0 0.00 0.00 0.00 41 1018.2
20260509182504 63 104 3.5 8.7 0.00 0.00 0.00 43 1018.2
20260509182012 63 106 4.3 7.0 0.00 0.00 0.00 43 1018.1
20260509181504 63 111 4.3 8.7 0.00 0.00 0.00 43 1018.0
20260509181011 64 112 4.3 10.4 0.00 0.00 0.00 42 1018.0
20260509180505 64 132 4.3 10.4 0.00 0.00 0.00 43 1018.0
20260509180004 64 114 5.2 10.4 0.00 0.00 0.00 43 1017.9
20260509175504 64 107 6.1 10.4 0.00 0.00 0.00 43 1017.8
20260509175012 64 113 3.5 10.4 0.00 0.00 0.00 43 1017.8
20260509174011 64 131 5.2 13.0 0.00 0.00 0.00 43 1017.8
20260509173504 65 135 7.0 13.0 0.00 0.00 0.00 42 1017.7
20260509172504 65 111 6.1 14.8 0.00 0.00 0.00 42 1017.7
20260509172011 66 116 5.2 13.0 0.00 0.00 0.00 43 1017.8
20260509171504 66 156 6.1 10.4 0.00 0.00 0.00 43 1017.9
20260509171011 66 125 7.8 13.9 0.00 0.00 0.00 43 1017.9
20260509165504 66 136 5.2 12.2 0.00 0.00 0.00 43 1017.8
20260509165012 67 118 6.1 11.3 0.00 0.00 0.00 44 1017.9
20260509164504 67 140 8.7 14.8 0.00 0.00 0.00 43 1017.7
20260509164012 67 114 6.1 13.9 0.00 0.00 0.00 42 1017.8
20260509163504 67 123 8.7 14.8 0.00 0.00 0.00 43 1017.7
20260509163011 67 150 6.1 15.6 0.00 0.00 0.00 43 1017.7
20260509161505 68 148 10.4 17.4 0.00 0.00 0.00 42 1018.0
20260509161011 68 152 8.7 17.4 0.00 0.00 0.00 42 1018.0
20260509160004 68 128 8.7 13.9 0.00 0.00 0.00 41 1018.0
20260509155011 69 173 7.8 12.2 0.00 0.00 0.00 41 1017.9
20260509154011 69 157 6.1 11.3 0.00 0.00 0.00 42 1018.0
20260509153504 69 144 5.2 11.3 0.00 0.00 0.00 42 1018.0
20260509153011 69 164 7.8 12.2 0.00 0.00 0.00 43 1018.0
20260509152504 69 174 4.3 12.2 0.00 0.00 0.00 43 1017.9
20260509152012 68 127 6.1 12.2 0.00 0.00 0.00 41 1017.9
20260509151504 69 100 6.1 13.9 0.00 0.00 0.00 39 1017.9
20260509150505 68 111 4.3 10.4 0.00 0.00 0.00 41 1017.8
20260509150004 68 132 6.1 11.3 0.00 0.00 0.00 39 1017.8
20260509145504 69 114 5.2 13.0 0.00 0.00 0.00 40 1017.9
20260509145011 68 130 4.3 10.4 0.00 0.00 0.00 39 1017.8
20260509144504 69 104 7.0 12.2 0.00 0.00 0.00 39 1017.7
20260509143504 70 112 4.3 12.2 0.00 0.00 0.00 39 1017.7
20260509142011 70 92 5.2 10.4 0.00 0.00 0.00 38 1017.5
20260509141504 70 90 4.3 13.0 0.00 0.00 0.00 39 1017.5
20260509141011 70 103 7.0 13.0 0.00 0.00 0.00 38 1017.5